Regional Weather Roundup
Issued by NWS

Home | Current Version | Previous Version | Graphics & Text | Print | Product List | Glossary On
Versions: 1 2 3 4 5 6 7 8 9 10 11 12 13 14 15 16 17 18 19 20 21 22 23 24 25 26 27 28 29 30 31 32 33 34 35 36 37 38 39 40 41 42 43 44 45 46 47 48 49 50
000
ASUS43 KBIS 290510
RWRND

NORTH DAKOTA REGIONAL WEATHER ROUNDUP
NATIONAL WEATHER SERVICE BISMARCK ND
1200 AM CDT MON AUG 29 2016

NOTE: "FAIR" INDICATES FEW OR NO CLOUDS BELOW 12,000 FEET WITH NO
SIGNIFICANT WEATHER AND/OR OBSTRUCTIONS TO VISIBILITY.


NDZ001>003-009>011-017-290600-
NORTHWEST NORTH DAKOTA

CITY           SKY/WX    TMP DP  RH WIND       PRES   REMARKS
WILLISTON      PTCLDY    66  48  52 N15       30.11R
MINOT          CLEAR     66  54  65 NW10      30.08R
MINOT AFB      CLEAR     63  54  72 NW6       30.07R
$$

NDZ018>021-031>035-040>046-290600-
SOUTHWEST NORTH DAKOTA

CITY           SKY/WX    TMP DP  RH WIND       PRES   REMARKS
BISMARCK       CLEAR     75  57  53 N10       30.02R
DICKINSON      CLOUDY    70  47  43 NE15      30.09R
GARRISON         N/A     68  56  65 N14       30.07R
HETTINGER ARPT CLEAR     73  48  41 N16       30.09R
$$

NDZ004>008-012>016-024-026-027-054-290600-
NORTHEAST NORTH DAKOTA

CITY           SKY/WX    TMP DP  RH WIND       PRES   REMARKS
GRAND FORKS    CLOUDY    70  61  73 SE6       29.95R
GRND FRKS AFB  CLOUDY    69  62  78 SE5       29.97R
DEVILS LAKE    PTCLDY    72  70  94 N15G26    30.00R
$$

NDZ022-023-025-028>030-036>039-047>053-290600-
SOUTHEAST NORTH DAKOTA

CITY           SKY/WX    TMP DP  RH WIND       PRES   REMARKS
FARGO          CLOUDY    78  71  79 NE21G29   29.97R
JAMESTOWN      CLEAR     65  64  97 S3        29.97R
$$





USA.gov is the U.S. government's official web portal to all federal, state and local government web resources and services.